Barcelona, Venezuela

8:51 PM -04 on March 30, 2017 (GMT -0400)
General Jose Antonio Anzoategui

Weather History for SVBC - September, 2013

Change the Weather History Date:

Monday, September 30, 2013

  Actual Average Record
Temperature  
Mean Temperature 85 °F -  
Max Temperature 95 °F 91 °F 96 °F (2011)
Min Temperature 75 °F 73 °F 69 °F (2001)
Cooling Degree Days 20    
Growing Degree Days 35 (Base 50)    
Moisture  
Dew Point 73 °F    
Average Humidity 74    
Maximum Humidity 94    
Minimum Humidity 34    
Precipitation  
Precipitation 0.08 in 0.08 in - ()
Sea Level Pressure  
Sea Level Pressure 29.89 in    
Wind  
Wind Speed 2 mph ()    
Max Wind Speed 12 mph    
Max Gust Speed -    
Visibility 6.5 miles    
Events Thunderstorm    
Averages and records for this station are not official NWS values.
T = Trace of Precipitation, MM = Missing Value Source: Averaged Metar Reports

Daily Weather History Graph

Daily Weather History Graph

Search for Another Location

Airport or City:

Trip Planner

Search our weather history database for the weather conditions in past years. The results will help you decide how hot, cold, wet, or windy it might be!

Date:

Astronomy

Sep. 30, 2013 Rise Set
Actual Time 5:37 AM -0430 5:39 PM -0430
Civil Twilight 5:16 AM -0430 6:00 PM -0430
Nautical Twilight 4:52 AM -0430 6:25 PM -0430
Astronomical Twilight 4:27 AM -0430 6:49 PM -0430
Moon 1:52 AM -0430 (9/30) 2:31 PM -0430 (9/30)
Length of Visible Light 12h 44m
Length of Day
12h 02m
Waning Crescent, 19% of the Moon is Illuminated
Sep 30
Waning Crescent
Oct 4
New
Oct 11
First Quarter
Oct 18
Full
Oct 26
Last Quarter

Hourly Weather History & Observations

Time (-0430) Temp. Heat Index Dew Point Humidity Pressure Visibility Wind Dir Wind Speed Gust Speed Precip Events Conditions
12:30 AM 78.8 °F - 71.6 °F 78% 29.92 in 6.2 mi Calm Calm - N/A   Partly Cloudy
1:30 AM 77.0 °F - 75.2 °F 94% 29.89 in 6.2 mi Calm Calm - N/A   Partly Cloudy
2:30 AM 77.0 °F - 69.8 °F 78% 29.89 in 6.2 mi Calm Calm - N/A   Partly Cloudy
3:30 AM 75.2 °F - 71.6 °F 89% 29.92 in 6.2 mi Calm Calm - N/A   Partly Cloudy
4:30 AM 75.2 °F - 71.6 °F 89% 29.92 in 6.2 mi Calm Calm - N/A   Scattered Clouds
5:30 AM 77.0 °F - 69.8 °F 78% 29.95 in 6.2 mi Calm Calm - N/A   Scattered Clouds
6:30 AM 77.0 °F - 73.4 °F 89% 29.95 in 6.2 mi Calm Calm - N/A   Mostly Cloudy
7:30 AM 80 °F - 72 °F 72% 30.02 in 11 mi Calm Calm - -   Scattered Clouds
7:30 AM 80.6 °F 84.6 °F 71.6 °F 74% 29.95 in 6.2 mi Calm Calm - N/A   Partly Cloudy
8:30 AM 86.0 °F 93.4 °F 73.4 °F 66% 29.92 in 6.2 mi Calm Calm - N/A   Partly Cloudy
9:30 AM 87.8 °F 95.6 °F 73.4 °F 62% 29.92 in 6.2 mi Calm Calm - N/A   Partly Cloudy
10:30 AM 89.6 °F 98.2 °F 73.4 °F 59% 29.92 in 6.2 mi North 5.8 mph - N/A   Partly Cloudy
11:30 AM 91.4 °F 98.4 °F 71.6 °F 52% 29.89 in 6.2 mi NNW 11.5 mph - N/A   Partly Cloudy
12:30 PM 93.2 °F 102.4 °F 73.4 °F 52% 29.89 in 6.2 mi North 11.5 mph - N/A   Partly Cloudy
1:30 PM 96 °F - 71 °F 34% 29.90 in 12 mi North 11.2 mph - -   Partly Cloudy
1:30 PM 95.0 °F 101.3 °F 69.8 °F 44% 29.83 in 6.2 mi North 11.5 mph - N/A   Scattered Clouds
2:30 PM 93.2 °F 100.5 °F 71.6 °F 49% 29.80 in 6.2 mi North 11.5 mph - N/A   Scattered Clouds
3:30 PM 93.2 °F 100.5 °F 71.6 °F 49% 29.80 in 6.2 mi North 11.5 mph - N/A   Scattered Clouds
4:30 PM 86.0 °F 95.1 °F 75.2 °F 70% 29.80 in 5.0 mi ESE 5.8 mph - N/A Thunderstorm Light Thunderstorm
5:30 PM 80.6 °F 87.1 °F 77.0 °F 89% 29.80 in 6.2 mi Calm Calm - N/A   Scattered Clouds
6:30 PM 80.6 °F 86.2 °F 75.2 °F 84% 29.83 in 6.2 mi Calm Calm - N/A   Scattered Clouds
7:30 PM 80 °F - 76 °F 85% 29.93 in 6 mi Calm Calm - -   Partly Cloudy
7:30 PM 80.6 °F 87.1 °F 77.0 °F 89% 29.86 in 6.2 mi Calm Calm - N/A   Scattered Clouds
8:30 PM 80.6 °F 87.1 °F 77.0 °F 89% 29.86 in 6.2 mi Calm Calm - N/A   Scattered Clouds
9:30 PM 78.8 °F - 75.2 °F 89% 29.89 in 6.2 mi Calm Calm - N/A   Partly Cloudy
10:30 PM 78.8 °F - 77.0 °F 94% 29.89 in 6.2 mi Calm Calm - N/A   Partly Cloudy
11:30 PM 78.8 °F - 75.2 °F 89% 29.89 in 6.2 mi Calm Calm - N/A   Partly Cloudy